| time (UTC) | temp C | wind direction | speed KPH | gust KPH | rain 1hr cm | rain 24hr cm | rain mn cm | humidity % | barometer mb |
| 20260510205155 | 14 | 22 | 8.0 | 19.3 | 0.00 | 0.00 | 0.00 | 30 | 1017.6 |
| 20260510204652 | 15 | 12 | 6.4 | 8.0 | 0.00 | 0.00 | 0.00 | 30 | 1017.5 |
| 20260510204149 | 14 | 212 | 0.0 | 9.7 | 0.00 | 0.00 | 0.00 | 32 | 1017.7 |
| 20260510203645 | 14 | 38 | 11.3 | 16.1 | 0.00 | 0.00 | 0.00 | 32 | 1017.6 |
| 20260510203142 | 14 | 35 | 14.5 | 20.9 | 0.00 | 0.00 | 0.00 | 33 | 1017.6 |
| 20260510202636 | 14 | 93 | 3.2 | 12.9 | 0.00 | 0.00 | 0.00 | 30 | 1017.6 |
| 20260510202131 | 14 | 5 | 11.3 | 12.9 | 0.00 | 0.00 | 0.00 | 32 | 1017.5 |
| 20260510201629 | 13 | 47 | 4.8 | 12.9 | 0.00 | 0.00 | 0.00 | 33 | 1017.4 |
| 20260510201126 | 15 | 43 | 8.0 | 16.1 | 0.00 | 0.00 | 0.00 | 35 | 1017.8 |
| 20260510200622 | 13 | 33 | 6.4 | 25.7 | 0.00 | 0.00 | 0.00 | 32 | 1017.7 |
| 20260510200120 | 13 | 16 | 4.8 | 11.3 | 0.00 | 0.00 | 0.00 | 31 | 1017.5 |
| 20260510195618 | 14 | 9 | 9.7 | 19.3 | 0.00 | 0.00 | 0.00 | 33 | 1017.7 |
| 20260510195113 | 14 | 7 | 6.4 | 16.1 | 0.00 | 0.00 | 0.00 | 31 | 1017.6 |
| 20260510194613 | 14 | 12 | 3.2 | 17.7 | 0.00 | 0.00 | 0.00 | 39 | 1017.4 |
| 20260510194110 | 13 | 33 | 11.3 | 25.7 | 0.00 | 0.00 | 0.00 | 32 | 1017.6 |
| 20260510193610 | 14 | 23 | 6.4 | 14.5 | 0.00 | 0.00 | 0.00 | 32 | 1017.5 |
| 20260510193106 | 13 | 45 | 20.9 | 24.1 | 0.00 | 0.00 | 0.00 | 32 | 1017.5 |
| 20260510192601 | 13 | 359 | 11.3 | 22.5 | 0.00 | 0.00 | 0.00 | 28 | 1017.6 |
| 20260510192057 | 13 | 21 | 9.7 | 16.1 | 0.00 | 0.00 | 0.00 | 30 | 1017.6 |
| 20260510191554 | 14 | 32 | 19.3 | 19.3 | 0.00 | 0.00 | 0.00 | 32 | 1017.6 |
| 20260510191051 | 13 | 22 | 11.3 | 20.9 | 0.00 | 0.00 | 0.00 | 28 | 1017.6 |
| 20260510190548 | 15 | 68 | 4.8 | 17.7 | 0.00 | 0.00 | 0.00 | 36 | 1017.6 |
| 20260510190045 | 13 | 22 | 11.3 | 19.3 | 0.00 | 0.00 | 0.00 | 33 | 1017.6 |
| 20260510185542 | 15 | 18 | 0.0 | 11.3 | 0.00 | 0.00 | 0.00 | 33 | 1017.4 |
| 20260510185039 | 15 | 9 | 6.4 | 14.5 | 0.00 | 0.00 | 0.00 | 30 | 1017.2 |
| 20260510184537 | 13 | 36 | 14.5 | 20.9 | 0.00 | 0.00 | 0.00 | 31 | 1017.3 |
| 20260510184031 | 15 | 40 | 14.5 | 17.7 | 0.00 | 0.00 | 0.00 | 29 | 1017.3 |
| 20260510183522 | 15 | 119 | 3.2 | 17.7 | 0.00 | 0.00 | 0.00 | 29 | 1017.3 |
| 20260510183017 | 13 | 57 | 6.4 | 17.7 | 0.00 | 0.00 | 0.00 | 27 | 1016.9 |
| 20260510182514 | 14 | 27 | 9.7 | 19.3 | 0.00 | 0.00 | 0.00 | 28 | 1016.7 |
| 20260510182008 | 14 | 20 | 6.4 | 16.1 | 0.00 | 0.00 | 0.00 | 27 | 1016.9 |
| 20260510181507 | 13 | 21 | 12.9 | 17.7 | 0.00 | 0.00 | 0.00 | 29 | 1016.9 |
| 20260510181002 | 14 | 13 | 12.9 | 17.7 | 0.00 | 0.00 | 0.00 | 27 | 1017.0 |
| 20260510180500 | 14 | 8 | 6.4 | 14.5 | 0.00 | 0.00 | 0.00 | 32 | 1017.1 |
| 20260510175957 | 14 | 0 | 6.4 | 16.1 | 0.00 | 0.00 | 0.00 | 30 | 1016.7 |
| 20260510175452 | 15 | 33 | 12.9 | 14.5 | 0.00 | 0.00 | 0.00 | 31 | 1016.8 |
| 20260510174948 | 14 | 48 | 17.7 | 19.3 | 0.00 | 0.00 | 0.00 | 32 | 1016.8 |
| 20260510174446 | 14 | 51 | 14.5 | 17.7 | 0.00 | 0.00 | 0.00 | 33 | 1017.0 |
| 20260510173943 | 15 | 52 | 4.8 | 17.7 | 0.00 | 0.00 | 0.00 | 34 | 1016.8 |
| 20260510173439 | 15 | 45 | 6.4 | 11.3 | 0.00 | 0.00 | 0.00 | 34 | 1016.7 |
| 20260510172935 | 15 | 27 | 11.3 | 19.3 | 0.00 | 0.00 | 0.00 | 32 | 1016.8 |
| 20260510172431 | 15 | 21 | 9.7 | 17.7 | 0.00 | 0.00 | 0.00 | 31 | 1017.1 |
| 20260510171927 | 15 | 21 | 1.6 | 8.0 | 0.00 | 0.00 | 0.00 | 32 | 1017.0 |
| 20260510171425 | 15 | 156 | 4.8 | 12.9 | 0.00 | 0.00 | 0.00 | 32 | 1017.0 |
| 20260510170921 | 14 | 230 | 6.4 | 16.1 | 0.00 | 0.00 | 0.00 | 27 | 1017.0 |
| 20260510170418 | 14 | 40 | 11.3 | 20.9 | 0.00 | 0.00 | 0.00 | 29 | 1016.8 |
| 20260510165913 | 14 | 28 | 6.4 | 17.7 | 0.00 | 0.00 | 0.00 | 32 | 1017.0 |
| 20260510165411 | 14 | 24 | 9.7 | 20.9 | 0.00 | 0.00 | 0.00 | 28 | 1016.7 |
| 20260510164908 | 14 | 48 | 6.4 | 12.9 | 0.00 | 0.00 | 0.00 | 33 | 1017.0 |
| 20260510164405 | 15 | 182 | 1.6 | 8.0 | 0.00 | 0.00 | 0.00 | 39 | 1017.0 |
| 20260510163904 | 14 | 40 | 8.0 | 16.1 | 0.00 | 0.00 | 0.00 | 38 | 1016.6 |
| 20260510163401 | 15 | 28 | 6.4 | 9.7 | 0.00 | 0.00 | 0.00 | 38 | 1016.8 |
| 20260510162855 | 13 | 36 | 8.0 | 16.1 | 0.00 | 0.00 | 0.00 | 36 | 1016.7 |
| 20260510162354 | 14 | 33 | 11.3 | 19.3 | 0.00 | 0.00 | 0.00 | 32 | 1016.8 |
| 20260510161848 | 15 | 223 | 11.3 | 12.9 | 0.00 | 0.00 | 0.00 | 36 | 1016.8 |
| 20260510161345 | 14 | 356 | 3.2 | 8.0 | 0.00 | 0.00 | 0.00 | 46 | 1016.8 |
| 20260510160842 | 13 | 26 | 6.4 | 14.5 | 0.00 | 0.00 | 0.00 | 39 | 1016.8 |
| 20260510160339 | 13 | 42 | 8.0 | 16.1 | 0.00 | 0.00 | 0.00 | 44 | 1016.5 |
| 20260510155832 | 13 | 56 | 8.0 | 14.5 | 0.00 | 0.00 | 0.00 | 40 | 1016.4 |
| 20260510155330 | 13 | 41 | 6.4 | 16.1 | 0.00 | 0.00 | 0.00 | 42 | 1016.3 |
| 20260510154826 | 13 | 16 | 6.4 | 16.1 | 0.00 | 0.00 | 0.00 | 44 | 1016.3 |
| 20260510154321 | 13 | 52 | 11.3 | 11.3 | 0.00 | 0.00 | 0.00 | 45 | 1016.2 |
| 20260510153816 | 13 | 251 | 1.6 | 9.7 | 0.00 | 0.00 | 0.00 | 52 | 1016.1 |
| 20260510153312 | 13 | 41 | 17.7 | 20.9 | 0.00 | 0.00 | 0.00 | 41 | 1016.3 |
| 20260510152809 | 12 | 22 | 6.4 | 17.7 | 0.00 | 0.00 | 0.00 | 46 | 1016.1 |
| 20260510152307 | 12 | 38 | 4.8 | 11.3 | 0.00 | 0.00 | 0.00 | 46 | 1016.3 |
| 20260510151803 | 12 | 33 | 6.4 | 14.5 | 0.00 | 0.00 | 0.00 | 42 | 1016.4 |
| 20260510151301 | 13 | 335 | 6.4 | 11.3 | 0.00 | 0.00 | 0.00 | 45 | 1016.2 |
| 20260510150756 | 12 | 346 | 4.8 | 11.3 | 0.00 | 0.00 | 0.00 | 44 | 1016.1 |
| 20260510150252 | 12 | 71 | 16.1 | 16.1 | 0.00 | 0.00 | 0.00 | 46 | 1016.1 |
| 20260510145748 | 12 | 12 | 9.7 | 16.1 | 0.00 | 0.00 | 0.00 | 42 | 1016.2 |
| 20260510145245 | 13 | 24 | 11.3 | 12.9 | 0.00 | 0.00 | 0.00 | 45 | 1016.0 |
| 20260510144740 | 12 | 35 | 9.7 | 14.5 | 0.00 | 0.00 | 0.00 | 43 | 1015.8 |
| 20260510144238 | 12 | 11 | 6.4 | 11.3 | 0.00 | 0.00 | 0.00 | 50 | 1015.6 |
| 20260510143732 | 12 | 37 | 12.9 | 14.5 | 0.00 | 0.00 | 0.00 | 48 | 1015.8 |
| 20260510143229 | 12 | 24 | 8.0 | 12.9 | 0.00 | 0.00 | 0.00 | 44 | 1015.7 |
| 20260510142725 | 12 | 21 | 6.4 | 16.1 | 0.00 | 0.00 | 0.00 | 43 | 1015.8 |
| 20260510142222 | 11 | 21 | 11.3 | 20.9 | 0.00 | 0.00 | 0.00 | 46 | 1015.7 |
| 20260510141719 | 11 | 34 | 12.9 | 16.1 | 0.00 | 0.00 | 0.00 | 45 | 1015.6 |
| 20260510141218 | 12 | 36 | 9.7 | 16.1 | 0.00 | 0.00 | 0.00 | 44 | 1015.8 |
| 20260510140713 | 11 | 36 | 20.9 | 20.9 | 0.00 | 0.00 | 0.00 | 48 | 1015.8 |
| 20260510140208 | 11 | 25 | 11.3 | 11.3 | 0.00 | 0.00 | 0.00 | 43 | 1015.6 |
| 20260510135703 | 11 | 28 | 8.0 | 20.9 | 0.00 | 0.00 | 0.00 | 44 | 1015.8 |
| 20260510135159 | 11 | 52 | 11.3 | 19.3 | 0.00 | 0.00 | 0.00 | 45 | 1015.8 |
| 20260510134656 | 11 | 9 | 9.7 | 16.1 | 0.00 | 0.00 | 0.00 | 44 | 1016.0 |
| 20260510134153 | 11 | 26 | 8.0 | 14.5 | 0.00 | 0.00 | 0.00 | 48 | 1016.0 |
| 20260510133649 | 11 | 14 | 8.0 | 14.5 | 0.00 | 0.00 | 0.00 | 50 | 1015.6 |
| 20260510133145 | 11 | 20 | 14.5 | 20.9 | 0.00 | 0.00 | 0.00 | 49 | 1015.6 |
| 20260510132641 | 10 | 49 | 16.1 | 25.7 | 0.00 | 0.00 | 0.00 | 47 | 1015.5 |
| 20260510132139 | 11 | 40 | 9.7 | 16.1 | 0.00 | 0.00 | 0.00 | 54 | 1015.3 |
| 20260510131636 | 11 | 34 | 6.4 | 19.3 | 0.00 | 0.00 | 0.00 | 55 | 1015.3 |
| 20260510131134 | 11 | 22 | 8.0 | 14.5 | 0.00 | 0.00 | 0.00 | 54 | 1015.1 |
| 20260510130630 | 10 | 47 | 4.8 | 12.9 | 0.00 | 0.00 | 0.00 | 60 | 1015.1 |
| 20260510130127 | 10 | 32 | 12.9 | 14.5 | 0.00 | 0.00 | 0.00 | 59 | 1015.0 |
| 20260510125623 | 10 | 13 | 11.3 | 12.9 | 0.00 | 0.00 | 0.00 | 60 | 1014.9 |
| 20260510125120 | 9 | 45 | 9.7 | 9.7 | 0.00 | 0.00 | 0.00 | 65 | 1014.9 |
| 20260510124617 | 9 | 23 | 6.4 | 8.0 | 0.00 | 0.00 | 0.00 | 66 | 1015.0 |
| 20260510124114 | 9 | 26 | 8.0 | 16.1 | 0.00 | 0.00 | 0.00 | 66 | 1014.7 |
| 20260510123609 | 9 | 4 | 11.3 | 16.1 | 0.00 | 0.00 | 0.00 | 66 | 1014.7 |
| 20260510123105 | 9 | 46 | 16.1 | 17.7 | 0.00 | 0.00 | 0.00 | 69 | 1014.6 |
| 20260510122601 | 9 | 44 | 8.0 | 12.9 | 0.00 | 0.00 | 0.00 | 68 | 1014.5 |
| 20260510122057 | 9 | 61 | 3.2 | 8.0 | 0.00 | 0.00 | 0.00 | 71 | 1014.6 |
| 20260510121554 | 8 | 25 | 6.4 | 14.5 | 0.00 | 0.00 | 0.00 | 71 | 1014.7 |
| 20260510121052 | 8 | 29 | 9.7 | 14.5 | 0.00 | 0.00 | 0.00 | 71 | 1014.1 |
| 20260510120549 | 8 | 37 | 6.4 | 9.7 | 0.00 | 0.00 | 0.00 | 74 | 1014.4 |
| 20260510120044 | 8 | 50 | 6.4 | 8.0 | 0.00 | 0.00 | 0.00 | 74 | 1014.0 |
| 20260510115541 | 8 | 30 | 4.8 | 9.7 | 0.00 | 0.00 | 0.00 | 75 | 1013.8 |
| 20260510115038 | 8 | 30 | 9.7 | 14.5 | 0.00 | 0.00 | 0.00 | 75 | 1013.9 |
| 20260510114533 | 8 | 18 | 6.4 | 9.7 | 0.00 | 0.00 | 0.00 | 77 | 1013.4 |
| 20260510114030 | 8 | 20 | 4.8 | 9.7 | 0.00 | 0.00 | 0.00 | 78 | 1013.5 |
| 20260510113525 | 8 | 20 | 4.8 | 11.3 | 0.00 | 0.00 | 0.00 | 78 | 1013.3 |
| 20260510113023 | 8 | 36 | 6.4 | 11.3 | 0.00 | 0.00 | 0.00 | 79 | 1013.2 |
| 20260510112520 | 8 | 37 | 6.4 | 12.9 | 0.00 | 0.00 | 0.00 | 80 | 1013.2 |
| 20260510112016 | 8 | 11 | 4.8 | 11.3 | 0.00 | 0.00 | 0.00 | 81 | 1013.2 |
| 20260510111513 | 8 | 11 | 4.8 | 9.7 | 0.00 | 0.00 | 0.00 | 83 | 1013.1 |
| 20260510111009 | 8 | 37 | 4.8 | 8.0 | 0.00 | 0.00 | 0.00 | 84 | 1013.0 |
| 20260510110505 | 8 | 25 | 6.4 | 11.3 | 0.00 | 0.00 | 0.00 | 85 | 1012.8 |
| 20260510110002 | 8 | 27 | 0.0 | 4.8 | 0.00 | 0.00 | 0.00 | 85 | 1012.6 |
| 20260510105456 | 8 | 41 | 4.8 | 8.0 | 0.00 | 0.00 | 0.00 | 85 | 1012.8 |
| 20260510104952 | 8 | 27 | 4.8 | 8.0 | 0.00 | 0.00 | 0.00 | 85 | 1012.3 |
| 20260510104449 | 8 | 7 | 3.2 | 4.8 | 0.00 | 0.00 | 0.00 | 85 | 1012.2 |
| 20260510103945 | 8 | 31 | 3.2 | 4.8 | 0.00 | 0.00 | 0.00 | 85 | 1012.2 |
| 20260510103443 | 8 | 15 | 3.2 | 6.4 | 0.00 | 0.00 | 0.00 | 85 | 1012.0 |
| 20260510102938 | 8 | 45 | 4.8 | 8.0 | 0.00 | 0.00 | 0.00 | 85 | 1011.9 |
| 20260510102434 | 8 | 42 | 3.2 | 4.8 | 0.00 | 0.00 | 0.00 | 85 | 1012.0 |
| 20260510101931 | 8 | 32 | 3.2 | 6.4 | 0.00 | 0.00 | 0.00 | 85 | 1011.8 |
| 20260510101429 | 8 | 24 | 4.8 | 4.8 | 0.00 | 0.00 | 0.00 | 84 | 1011.6 |
| 20260510100927 | 8 | 13 | 4.8 | 8.0 | 0.00 | 0.00 | 0.00 | 84 | 1011.7 |
| 20260510100423 | 8 | 20 | 4.8 | 6.4 | 0.00 | 0.00 | 0.00 | 84 | 1011.6 |
| 20260510095919 | 8 | 48 | 4.8 | 8.0 | 0.00 | 0.00 | 0.00 | 84 | 1011.5 |
| 20260510095415 | 8 | 25 | 3.2 | 4.8 | 0.00 | 0.00 | 0.00 | 84 | 1011.6 |
| 20260510094914 | 8 | 30 | 4.8 | 6.4 | 0.00 | 0.00 | 0.00 | 85 | 1011.7 |
| 20260510094409 | 8 | 56 | 4.8 | 8.0 | 0.00 | 0.00 | 0.00 | 87 | 1011.5 |
| 20260510093906 | 8 | 30 | 4.8 | 8.0 | 0.00 | 0.00 | 0.00 | 89 | 1011.6 |
| 20260510093401 | 8 | 31 | 0.0 | 4.8 | 0.00 | 0.00 | 0.00 | 90 | 1011.5 |
| 20260510092858 | 8 | 57 | 0.0 | 4.8 | 0.00 | 0.00 | 0.00 | 90 | 1011.1 |
| 20260510092355 | 8 | 27 | 0.0 | 3.2 | 0.00 | 0.00 | 0.00 | 90 | 1011.1 |
| 20260510091855 | 8 | 45 | 0.0 | 3.2 | 0.00 | 0.00 | 0.00 | 90 | 1011.2 |
| 20260510091352 | 7 | 74 | 0.0 | 3.2 | 0.00 | 0.00 | 0.00 | 89 | 1010.5 |
| 20260510090849 | 7 | 124 | 0.0 | 3.2 | 0.00 | 0.00 | 0.00 | 89 | 1010.8 |
| 20260510090345 | 7 | 103 | 0.0 | 1.6 | 0.00 | 0.00 | 0.00 | 88 | 1010.7 |
| 20260510085842 | 7 | 147 | 0.0 | 3.2 | 0.00 | 0.00 | 0.00 | 88 | 1010.7 |
| 20260510085342 | 7 | 126 | 0.0 | 1.6 | 0.00 | 0.00 | 0.00 | 88 | 1010.5 |
| 20260510084838 | 8 | 44 | 0.0 | 3.2 | 0.00 | 0.00 | 0.00 | 87 | 1010.9 |
| 20260510084335 | 8 | 124 | 0.0 | 1.6 | 0.00 | 0.00 | 0.00 | 87 | 1010.3 |
| 20260510083831 | 8 | 106 | 0.0 | 3.2 | 0.00 | 0.00 | 0.00 | 87 | 1010.4 |
| 20260510083328 | 8 | 147 | 0.0 | 1.6 | 0.00 | 0.00 | 0.00 | 87 | 1010.4 |
| 20260510082824 | 8 | 166 | 0.0 | 0.0 | 0.00 | 0.00 | 0.00 | 87 | 1010.5 |
| 20260510082321 | 8 | 140 | 0.0 | 4.8 | 0.00 | 0.00 | 0.00 | 86 | 1010.2 |
| 20260510081820 | 8 | 269 | 0.0 | 3.2 | 0.00 | 0.00 | 0.00 | 85 | 1010.2 |
| 20260510081316 | 8 | 99 | 0.0 | 1.6 | 0.00 | 0.00 | 0.00 | 82 | 1010.1 |
| 20260510080812 | 9 | 76 | 0.0 | 1.6 | 0.00 | 0.00 | 0.00 | 82 | 1010.1 |
| 20260510080307 | 9 | 84 | 0.0 | 3.2 | 0.00 | 0.00 | 0.00 | 80 | 1009.9 |
| 20260510075805 | 10 | 49 | 0.0 | 3.2 | 0.00 | 0.00 | 0.00 | 80 | 1009.8 |
| 20260510075305 | 10 | 44 | 0.0 | 3.2 | 0.00 | 0.00 | 0.00 | 78 | 1009.8 |
| 20260510074759 | 10 | 56 | 3.2 | 4.8 | 0.00 | 0.00 | 0.00 | 78 | 1009.6 |
| 20260510074255 | 10 | 47 | 3.2 | 6.4 | 0.00 | 0.00 | 0.00 | 77 | 1009.5 |
| 20260510073752 | 10 | 26 | 3.2 | 4.8 | 0.00 | 0.00 | 0.00 | 77 | 1009.4 |
| 20260510073247 | 10 | 43 | 3.2 | 6.4 | 0.00 | 0.00 | 0.00 | 76 | 1009.3 |
| 20260510072743 | 10 | 41 | 4.8 | 8.0 | 0.00 | 0.00 | 0.00 | 75 | 1009.6 |
| 20260510072240 | 10 | 23 | 4.8 | 6.4 | 0.00 | 0.00 | 0.00 | 76 | 1009.3 |
| 20260510071737 | 10 | 38 | 3.2 | 8.0 | 0.00 | 0.00 | 0.00 | 75 | 1009.2 |
| 20260510071233 | 10 | 29 | 3.2 | 6.4 | 0.00 | 0.00 | 0.00 | 76 | 1009.2 |
| 20260510070732 | 10 | 21 | 4.8 | 8.0 | 0.00 | 0.00 | 0.00 | 75 | 1009.2 |
| 20260510070229 | 10 | 48 | 3.2 | 6.4 | 0.00 | 0.00 | 0.00 | 75 | 1009.0 |
| 20260510065723 | 11 | 19 | 6.4 | 8.0 | 0.00 | 0.00 | 0.00 | 74 | 1009.0 |
| 20260510065220 | 11 | 33 | 9.7 | 12.9 | 0.00 | 0.00 | 0.00 | 76 | 1008.9 |
| 20260510064717 | 11 | 39 | 4.8 | 6.4 | 0.00 | 0.00 | 0.00 | 79 | 1008.7 |
| 20260510064214 | 11 | 32 | 6.4 | 11.3 | 0.00 | 0.00 | 0.00 | 78 | 1008.8 |
| 20260510063711 | 11 | 46 | 6.4 | 8.0 | 0.00 | 0.00 | 0.00 | 79 | 1009.0 |
| 20260510063207 | 11 | 37 | 6.4 | 11.3 | 0.00 | 0.00 | 0.00 | 79 | 1009.0 |
| 20260510062704 | 11 | 13 | 8.0 | 11.3 | 0.00 | 0.00 | 0.00 | 79 | 1008.9 |
| 20260510062200 | 11 | 37 | 9.7 | 11.3 | 0.00 | 0.00 | 0.00 | 82 | 1008.6 |
| 20260510061654 | 11 | 43 | 11.3 | 11.3 | 0.00 | 0.00 | 0.00 | 82 | 1009.0 |
| 20260510061152 | 11 | 15 | 8.0 | 9.7 | 0.00 | 0.00 | 0.00 | 83 | 1009.0 |
| 20260510060648 | 11 | 21 | 4.8 | 12.9 | 0.00 | 0.00 | 0.00 | 85 | 1008.8 |
| 20260510060145 | 11 | 61 | 8.0 | 12.9 | 0.00 | 0.00 | 0.00 | 86 | 1008.6 |
| 20260510055641 | 11 | 3 | 4.8 | 24.1 | 0.00 | 0.00 | 0.00 | 90 | 1008.7 |
| 20260510055140 | 12 | 24 | 8.0 | 8.0 | 0.00 | 0.00 | 0.00 | 92 | 1008.5 |
| 20260510054635 | 12 | 304 | 0.0 | 1.6 | 0.00 | 0.00 | 0.00 | 92 | 1008.2 |
| 20260510054131 | 12 | 186 | 0.0 | 1.6 | 0.00 | 0.00 | 0.00 | 92 | 1008.1 |
| 20260510053630 | 12 | 69 | 0.0 | 3.2 | 0.00 | 0.00 | 0.00 | 91 | 1007.9 |
| 20260510053127 | 12 | 126 | 0.0 | 1.6 | 0.00 | 0.00 | 0.00 | 91 | 1008.1 |
| 20260510052623 | 12 | 54 | 3.2 | 6.4 | 0.00 | 0.00 | 0.00 | 91 | 1008.0 |
| 20260510052119 | 12 | 48 | 1.6 | 4.8 | 0.00 | 0.00 | 0.00 | 90 | 1007.9 |
| 20260510051614 | 13 | 23 | 3.2 | 4.8 | 0.00 | 0.00 | 0.00 | 89 | 1007.9 |
| 20260510051112 | 13 | 234 | 3.2 | 4.8 | 0.00 | 0.00 | 0.00 | 89 | 1007.9 |
| 20260510050609 | 13 | 264 | 1.6 | 4.8 | 0.00 | 0.00 | 0.00 | 88 | 1007.6 |
| 20260510050106 | 13 | 229 | 1.6 | 9.7 | 0.00 | 0.00 | 0.00 | 87 | 1007.2 |
| 20260510045603 | 13 | 15 | 1.6 | 6.4 | 0.00 | 0.00 | 0.00 | 86 | 1007.5 |
| 20260510045059 | 13 | 252 | 6.4 | 14.5 | 0.00 | 0.00 | 0.00 | 87 | 1007.3 |
| 20260510044555 | 13 | 322 | 6.4 | 8.0 | 0.00 | 0.00 | 0.00 | 86 | 1006.7 |
| 20260510044053 | 13 | 315 | 3.2 | 8.0 | 0.00 | 0.00 | 0.00 | 86 | 1006.5 |
| 20260510043549 | 13 | 279 | 3.2 | 9.7 | 0.00 | 0.00 | 0.00 | 87 | 1006.4 |
| 20260510043045 | 12 | 198 | 3.2 | 6.4 | 0.00 | 0.00 | 0.00 | 89 | 1006.4 |
| 20260510042544 | 12 | 194 | 3.2 | 8.0 | 0.00 | 0.00 | 0.00 | 89 | 1006.5 |
| 20260510042039 | 12 | 241 | 1.6 | 6.4 | 0.00 | 0.00 | 0.00 | 90 | 1006.2 |
| 20260510041538 | 12 | 225 | 3.2 | 8.0 | 0.00 | 0.00 | 0.00 | 90 | 1006.3 |
| 20260510041035 | 12 | 232 | 1.6 | 6.4 | 0.00 | 0.00 | 0.00 | 91 | 1006.2 |
| 20260510040531 | 12 | 269 | 3.2 | 4.8 | 0.00 | 0.00 | 0.00 | 91 | 1006.2 |
| 20260510040026 | 12 | 317 | 0.0 | 4.8 | 0.00 | 0.00 | 0.00 | 91 | 1006.1 |
| 20260510035523 | 12 | 220 | 3.2 | 4.8 | 0.00 | 0.74 | 0.74 | 91 | 1006.2 |
| 20260510035023 | 13 | 225 | 4.8 | 6.4 | 0.05 | 0.74 | 0.74 | 90 | 1006.2 |
| 20260510034521 | 13 | 147 | 0.0 | 1.6 | 0.13 | 0.74 | 0.74 | 90 | 1006.2 |
| 20260510034017 | 13 | 261 | 3.2 | 6.4 | 0.23 | 0.74 | 0.74 | 89 | 1006.5 |
| 20260510033513 | 13 | 171 | 3.2 | 6.4 | 0.18 | 0.71 | 0.71 | 88 | 1006.8 |
| 20260510033012 | 13 | 257 | 8.0 | 11.3 | 0.30 | 0.69 | 0.69 | 88 | 1006.4 |
| 20260510032508 | 13 | 180 | 3.2 | 16.1 | 0.48 | 0.69 | 0.69 | 90 | 1006.4 |
| 20260510032008 | 13 | 273 | 4.8 | 9.7 | 0.18 | 0.64 | 0.64 | 90 | 1006.4 |
| 20260510031504 | 13 | 203 | 4.8 | 11.3 | 0.05 | 0.61 | 0.61 | 88 | 1006.5 |
| 20260510031000 | 13 | 232 | 4.8 | 17.7 | 0.05 | 0.61 | 0.61 | 88 | 1006.4 |
| 20260510030455 | 13 | 283 | 8.0 | 11.3 | 0.05 | 0.61 | 0.61 | 88 | 1006.3 |
| 20260510025953 | 13 | 239 | 0.0 | 4.8 | 0.00 | 0.58 | 0.58 | 88 | 1006.2 |
| 20260510025450 | 13 | 263 | 4.8 | 8.0 | 0.00 | 0.58 | 0.58 | 89 | 1006.4 |
| 20260510024947 | 13 | 263 | 3.2 | 11.3 | 0.00 | 0.58 | 0.58 | 89 | 1006.3 |
| 20260510024444 | 13 | 255 | 3.2 | 8.0 | 0.00 | 0.58 | 0.58 | 89 | 1006.2 |
| 20260510023939 | 13 | 268 | 4.8 | 4.8 | 0.00 | 0.58 | 0.58 | 88 | 1006.1 |
| 20260510023436 | 13 | 268 | 0.0 | 6.4 | 0.05 | 0.58 | 0.58 | 88 | 1006.1 |
| 20260510022933 | 13 | 289 | 0.0 | 8.0 | 0.13 | 0.58 | 0.58 | 88 | 1006.1 |
| 20260510022432 | 13 | 254 | 6.4 | 9.7 | 0.30 | 0.58 | 0.58 | 86 | 1006.5 |
| 20260510021931 | 13 | 227 | 14.5 | 33.8 | 0.43 | 0.56 | 0.56 | 86 | 1006.4 |
| 20260510021430 | 13 | 254 | 19.3 | 27.4 | 0.18 | 0.53 | 0.53 | 91 | 1006.6 |
| 20260510020927 | 13 | 245 | 6.4 | 12.9 | 0.00 | 0.51 | 0.51 | 87 | 1006.4 |
| 20260510020427 | 13 | 269 | 0.0 | 4.8 | 0.00 | 0.51 | 0.51 | 88 | 1006.0 |
| 20260510015923 | 13 | 234 | 1.6 | 4.8 | 0.00 | 0.51 | 0.51 | 89 | 1005.8 |
| 20260510015419 | 13 | 216 | 0.0 | 3.2 | 0.00 | 0.51 | 0.51 | 89 | 1005.8 |
| 20260510014914 | 12 | 243 | 0.0 | 3.2 | 0.00 | 0.51 | 0.51 | 89 | 1005.8 |
| 20260510014412 | 12 | 202 | 0.0 | 4.8 | 0.00 | 0.51 | 0.51 | 90 | 1005.6 |
| 20260510013908 | 12 | 296 | 3.2 | 4.8 | 0.00 | 0.51 | 0.51 | 90 | 1005.9 |
| 20260510013403 | 12 | 222 | 4.8 | 8.0 | 0.00 | 0.51 | 0.51 | 91 | 1005.6 |
| 20260510012858 | 12 | 225 | 0.0 | 6.4 | 0.00 | 0.51 | 0.51 | 91 | 1005.7 |
| 20260510012353 | 12 | 162 | 0.0 | 3.2 | 0.00 | 0.51 | 0.51 | 91 | 1005.6 |
| 20260510011848 | 12 | 150 | 0.0 | 1.6 | 0.00 | 0.51 | 0.51 | 91 | 1005.7 |
| 20260510011344 | 12 | 206 | 0.0 | 3.2 | 0.00 | 0.51 | 0.51 | 91 | 1005.7 |
| 20260510010840 | 12 | 193 | 0.0 | 3.2 | 0.00 | 0.51 | 0.51 | 91 | 1005.5 |
| 20260510010338 | 12 | 202 | 0.0 | 1.6 | 0.00 | 0.51 | 0.51 | 90 | 1005.3 |
| 20260510005834 | 12 | 240 | 0.0 | 1.6 | 0.00 | 0.51 | 0.51 | 90 | 1005.6 |
| 20260510005330 | 13 | 201 | 0.0 | 1.6 | 0.00 | 0.51 | 0.51 | 89 | 1005.4 |
| 20260510004828 | 13 | 252 | 0.0 | 3.2 | 0.00 | 0.51 | 0.51 | 89 | 1005.4 |
| 20260510004326 | 13 | 283 | 3.2 | 4.8 | 0.00 | 0.51 | 0.51 | 89 | 1005.3 |
| 20260510003823 | 13 | 150 | 0.0 | 3.2 | 0.00 | 0.51 | 0.51 | 88 | 1005.3 |
| 20260510003320 | 13 | 286 | 1.6 | 4.8 | 0.00 | 0.51 | 0.51 | 88 | 1005.5 |
| 20260510002819 | 13 | 180 | 1.6 | 4.8 | 0.00 | 0.51 | 0.51 | 88 | 1005.2 |
| 20260510002316 | 13 | 291 | 1.6 | 8.0 | 0.00 | 0.51 | 0.51 | 87 | 1005.3 |
| 20260510001812 | 13 | 228 | 3.2 | 9.7 | 0.00 | 0.51 | 0.51 | 87 | 1005.4 |
| 20260510001311 | 13 | 202 | 0.0 | 9.7 | 0.00 | 0.51 | 0.51 | 87 | 1005.2 |
| 20260510000806 | 13 | 263 | 4.8 | 14.5 | 0.00 | 0.51 | 0.51 | 87 | 1005.3 |
| 20260510000305 | 13 | 251 | 0.0 | 9.7 | 0.00 | 0.51 | 0.51 | 88 | 1005.4 |
| 20260509235801 | 13 | 260 | 6.4 | 12.9 | 0.00 | 0.51 | 0.51 | 89 | 1005.3 |
| 20260509235257 | 13 | 281 | 1.6 | 6.4 | 0.00 | 0.51 | 0.51 | 89 | 1005.4 |
| 20260509234753 | 13 | 210 | 4.8 | 14.5 | 0.00 | 0.51 | 0.51 | 90 | 1005.3 |
| 20260509234250 | 13 | 257 | 0.0 | 8.0 | 0.00 | 0.51 | 0.51 | 90 | 1005.4 |
| 20260509233749 | 13 | 273 | 6.4 | 12.9 | 0.00 | 0.51 | 0.51 | 90 | 1005.5 |
| 20260509233246 | 13 | 242 | 8.0 | 16.1 | 0.05 | 0.51 | 0.51 | 91 | 1005.7 |
| 20260509232741 | 13 | 204 | 4.8 | 11.3 | 0.13 | 0.51 | 0.51 | 92 | 1005.1 |
| 20260509232239 | 13 | 240 | 3.2 | 12.9 | 0.18 | 0.48 | 0.48 | 92 | 1005.2 |
| 20260509231735 | 13 | 240 | 9.7 | 19.3 | 0.36 | 0.48 | 0.48 | 92 | 1005.4 |
| 20260509231232 | 13 | 177 | 1.6 | 11.3 | 0.71 | 0.46 | 0.46 | 92 | 1005.5 |
| 20260509230730 | 13 | 249 | 3.2 | 14.5 | 1.27 | 0.43 | 0.43 | 91 | 1006.0 |
| 20260509230227 | 13 | 250 | 11.3 | 25.7 | 1.63 | 0.33 | 0.33 | 90 | 1005.8 |
| 20260509225722 | 13 | 238 | 9.7 | 20.9 | 1.14 | 0.20 | 0.20 | 88 | 1004.9 |
| 20260509225218 | 13 | 47 | 16.1 | 29.0 | 0.23 | 0.05 | 0.05 | 86 | 1004.5 |
| 20260509224714 | 15 | 58 | 14.5 | 14.5 | 0.00 | 0.03 | 0.03 | 77 | 1004.5 |
| 20260509224211 | 20 | 56 | 4.8 | 32.2 | 0.00 | 0.03 | 0.03 | 57 | 1004.3 |
| 20260509223708 | 20 | 256 | 8.0 | 14.5 | 0.00 | 0.03 | 0.03 | 47 | 1003.4 |
| 20260509223205 | 20 | 250 | 27.4 | 33.8 | 0.00 | 0.03 | 0.03 | 46 | 1003.1 |
| 20260509222702 | 20 | 150 | 3.2 | 25.7 | 0.00 | 0.03 | 0.03 | 46 | 1002.5 |
| 20260509222157 | 21 | 214 | 12.9 | 29.0 | 0.00 | 0.03 | 0.03 | 46 | 1002.5 |
| 20260509221653 | 21 | 232 | 6.4 | 22.5 | 0.00 | 0.03 | 0.03 | 46 | 1002.8 |
| 20260509221149 | 21 | 257 | 8.0 | 16.1 | 0.00 | 0.03 | 0.03 | 46 | 1002.8 |
| 20260509220645 | 21 | 273 | 11.3 | 27.4 | 0.00 | 0.03 | 0.03 | 48 | 1003.0 |
| 20260509220141 | 21 | 236 | 4.8 | 20.9 | 0.00 | 0.03 | 0.03 | 48 | 1002.7 |
| 20260509215638 | 21 | 215 | 9.7 | 24.1 | 0.00 | 0.03 | 0.03 | 47 | 1002.9 |
| 20260509215135 | 21 | 209 | 11.3 | 43.5 | 0.00 | 0.03 | 0.03 | 48 | 1002.9 |
| 20260509214632 | 21 | 217 | 8.0 | 30.6 | 0.00 | 0.03 | 0.03 | 47 | 1002.6 |
| 20260509214128 | 22 | 232 | 11.3 | 32.2 | 0.00 | 0.03 | 0.03 | 45 | 1002.5 |
| 20260509213625 | 22 | 253 | 4.8 | 27.4 | 0.00 | 0.03 | 0.03 | 47 | 1002.8 |
| 20260509213121 | 22 | 185 | 9.7 | 20.9 | 0.00 | 0.03 | 0.03 | 46 | 1002.6 |
| 20260509212619 | 22 | 214 | 8.0 | 22.5 | 0.00 | 0.03 | 0.03 | 46 | 1002.6 |
| 20260509212115 | 22 | 220 | 4.8 | 19.3 | 0.00 | 0.03 | 0.03 | 48 | 1002.5 |
| 20260509211611 | 21 | 233 | 20.9 | 32.2 | 0.00 | 0.03 | 0.03 | 48 | 1002.5 |
| 20260509211108 | 22 | 247 | 16.1 | 24.1 | 0.00 | 0.03 | 0.03 | 48 | 1002.6 |
| 20260509210605 | 22 | 187 | 3.2 | 27.4 | 0.00 | 0.03 | 0.03 | 48 | 1002.8 |
| 20260509205602 | 22 | 268 | 12.9 | 20.9 | 0.00 | 0.03 | 0.03 | 48 | 1002.9 |